NUSAT-51 (YVONNE BRILL)

导读

NUSAT-51(YVONNE BRILL)是由阿根廷于2025年11月28日发射的小型卫星,以著名航天科学家伊冯·布里尔命名,致敬她在卫星推进技术领域的开创性贡献。该卫星隶属于NUSAT系列项目,主要承担空间环境监测、技术验证等相关科研任务,是阿根廷商业航天发展的最新成果之一,为后续微小卫星技术迭代积累在轨试验数据。

基本信息
目录编号:
66740
目录名称:
NUSAT-51 (YVONNE BRILL)
国际标识:
2025-276CC
轨道中心:
EARTH
卫星名称:
NUSAT-51 (YVONNE BRILL)
卫星全名:
NUSAT-51 (YVONNE BRILL)
卫星状态:
在轨 (已飞行281 天)
发射日期:
2025-11-28 UTC
国别 :
阿根廷 (AR)
星等 :
--
轨道信息
数据来源 国际轨道数据
星历时间: 2026-09-05T18:29:36+0800
7小时前
查看轨道信息
半长轴: 6880.75km
偏心率: 0.0004653
轨道倾角: 97.415°
近地点辐角 81.015°
升交点赤经 320.855°
平近点角 279.161°
近地点: 499.411km
远地点: 505.815km
周期: 94.670分钟
每日圈数: 15.210699
详细信息
使用方式:
暂无
2D轨道图
3D轨道图
轨道高度分析图
轨道倾角分析图
轨道综合分析图
查看轨道综合分析图
交会数据列表
事件ID 空间交会对象 最接近时刻(TCA) 交会距离 交会风险概率(CRP) 交会风险指数(CRI) 操作
CDM_260906-174106-462106-674023
HAWK-12C (64621)
2026-09-06T
17:41:52+0000
1.557 km
极远距离
4.181833E-6 低风险 0.47